[[{"header":{"parameterUnit":"m.s-1","parameterCategory":1,"la1":30.2991,"la2":30.254,"lo1":-89.0895,"lo2":-89.0444,"dy":0.0017,"dx":0.0017,"nx":28,"ny":28,"refTime":"2023-08-18T03:00:00:Z","depth":0,"parameterNumber":2,"parameterNumberName":"U-component_of_WINDS"},"data":[0,0,0,0,0,0,0,0,0,0,0,0,0,0,0,0,0,0,0,0,0,0,0,0,0,0,0,0,0,0,0,0,0,0,0,0,0,0,0,0,0,0,0,0,0,0,0,0,0,0,0,0,0,0,0,0,0,0,1.1266,1.1267,0,1.1386,1.1387,1.1389,1.1425,1.1424,1.1423,1.1423,1.155,1.1554,1.1557,0,0,0,0,0,0,0,0,0,0,0,0,0,1.1071,1.1075,1.1266,1.1268,1.1269,1.1386,1.1387,1.1389,1.1425,1.1424,1.1423,1.1422,1.1548,1.1553,1.1558,0,0,0,0,0,0,0,0,0,0,0,0,0,1.117,1.1076,1.1266,1.1301,1.1305,1.1385,1.1388,1.139,1.1425,1.1424,1.1423,1.1422,1.1547,1.1553,1.1558,1.1614,0,0,1.1577,1.1579,0,0,0,0,0,0,0,0,1.1164,1.1177,1.1294,1.1299,1.1303,1.1389,1.1365,1.1465,1.1425,1.1379,1.1423,1.1422,1.1497,1.1507,1.1532,1.162,1.1625,1.1577,1.1581,1.1583,1.1585,0,0,0,0,0,0,0,1.1158,1.1172,1.1314,1.1296,1.1302,1.1312,1.1325,1.1384,1.1442,1.1383,1.1386,1.14,1.15,1.1526,1.1535,1.1627,1.1577,1.1582,1.1586,1.1588,1.1766,1.1768,0,0,0,0,0,0,1.1144,1.1166,1.131,1.1317,1.123,1.1316,1.133,1.1363,1.1442,1.1453,1.14,1.1401,1.1516,1.1528,1.154,1.161,1.1583,1.1589,1.1592,1.1765,1.1767,1.1768,0,0,0,0,0,0,1.114,1.1157,1.1305,1.1243,1.1262,1.132,1.1356,1.1366,1.1392,1.1455,1.1465,1.1416,1.1516,1.1531,1.1595,1.1615,1.1592,1.1597,1.1764,1.1766,1.1767,1.175,0,0,0,0,0,0,1.1134,1.1155,1.1176,1.1243,1.1265,1.1357,1.1358,1.1369,1.1402,1.1404,1.1473,1.1483,1.1517,1.1586,1.1601,1.1623,1.1602,1.1762,1.1765,1.1767,1.1749,1.1751,1.1753,0,0,0,0,0,1.1127,1.1167,1.1177,1.1194,1.1293,1.1358,1.1371,1.1408,1.1403,1.1425,1.1465,1.1481,1.161,1.1592,1.1609,1.1633,1.1761,1.1764,1.1767,1.1748,1.1751,1.1753,0,0,0,0,0,0,1.1103,1.1177,1.1188,1.1251,1.1298,1.1364,1.1393,1.1409,1.1459,1.1459,1.1503,1.1519,1.1579,1.1612,1.1591,1.1691,1.1686,1.1692,1.1667,1.1669,1.1671,1.1662,1.1607,0,0,0,0,0,1.1104,1.115,1.1213,1.1262,1.1285,1.1335,1.1365,1.1388,1.1439,1.146,1.1505,1.1555,1.1606,1.164,1.1691,1.1754,1.177,1.1779,1.1781,1.1782,1.1787,1.1822,1.1827,1.1777,1.1777,1.1777,0,0,1.1109,1.1155,1.1182,1.1259,1.1298,1.1345,1.1351,1.1401,1.1437,1.1468,1.153,1.1565,1.1623,1.1687,1.1717,1.1716,1.1804,1.1785,1.1785,1.179,1.1826,1.183,1.1835,1.1778,1.1778,1.1778,0,0,1.1141,1.1181,1.1226,1.1264,1.1323,1.1356,1.1366,1.143,1.1454,1.1516,1.154,1.1584,1.1672,1.1713,1.1745,1.1792,1.1808,1.1807,1.1817,1.1851,1.1855,1.1858,1.1875,1.1881,1.1812,1.1812,1.1812,0,1.114,1.1211,1.1247,1.1296,1.1329,1.1357,1.1404,1.144,1.1513,1.1536,1.1534,1.1644,1.1686,1.1759,1.177,1.1795,1.181,1.18,1.1851,1.1855,1.1859,1.1876,1.1882,1.1811,1.1811,1.1811,1.1811,0,1.1207,1.1255,1.1285,1.1353,1.139,1.1437,1.1481,1.1514,1.1535,1.1567,1.1631,1.1682,1.1743,1.1762,1.1783,1.1838,1.1836,1.1842,1.1839,1.1863,1.1879,1.1886,1.1811,1.1811,1.1811,1.1811,0,0,1.1228,1.1314,1.1324,1.1355,1.1421,1.1461,1.1509,1.1568,1.1595,1.1645,1.1687,1.176,1.1766,1.1802,1.1828,1.1858,1.1891,1.186,1.1862,1.1864,1.1955,1.195,1.1957,1.1902,1.1904,1.1905,1.195,0,1.1269,1.1355,1.1389,1.146,1.1506,1.1533,1.1576,1.1621,1.1653,1.1698,1.1734,1.1785,1.1788,1.181,1.1841,1.1881,1.191,1.1878,1.1943,1.1945,1.1927,1.1965,1.1961,1.2001,1.1957,1.1958,1.1958,0,1.1328,1.1376,1.1451,1.1511,1.1532,1.1569,1.1625,1.1667,1.1719,1.1741,1.178,1.1804,1.1857,1.1849,1.1923,1.19,1.1929,1.1952,1.1955,1.1963,1.1953,1.1974,1.2015,1.2021,1.1969,1.1968,1.1967,0,1.1336,1.1419,1.1475,1.1501,1.1572,1.1598,1.1629,1.168,1.1713,1.1763,1.1784,1.184,1.187,1.1913,1.1951,1.1942,1.2021,1.2017,1.2041,1.204,1.2057,1.2056,1.2103,1.2075,1.2075,1.2075,1.2075,0,1.1378,1.1423,1.1479,1.1513,1.1565,1.1603,1.1653,1.1687,1.1732,1.1774,1.1801,1.184,1.1888,1.1933,1.1964,1.202,1.2034,1.2053,1.206,1.205,1.2048,1.207,1.2068,1.2076,1.2076,1.2076,1.2075,0,1.1395,1.1435,1.1497,1.1559,1.1576,1.1611,1.1665,1.1699,1.1732,1.1784,1.1799,1.1851,1.1905,1.1947,1.2019,1.2039,1.2099,1.2107,1.2081,1.2085,1.2106,1.2104,1.217,1.218,1.2145,1.2145,1.2145,0,1.142,1.1455,1.152,1.1549,1.158,1.1627,1.166,1.1699,1.1733,1.1795,1.1822,1.1878,1.1925,1.2011,1.2056,1.2111,1.2121,1.214,1.2129,1.2118,1.2121,1.2118,1.2122,1.2141,1.2142,1.2142,1.2142,0,1.1459,1.1476,1.1523,1.1576,1.1614,1.1658,1.1703,1.1726,1.1773,1.181,1.1865,1.1901,1.1973,1.2029,1.2088,1.2121,1.214,1.2145,1.2153,1.2144,1.2127,1.2136,1.2085,1.2143,1.2143,1.2143,1.2143,1.2143,1.1481,1.1513,1.1563,1.1614,1.1651,1.1692,1.1728,1.1764,1.181,1.1871,1.1892,1.1949,1.2,1.2081,1.2115,1.2161,1.2161,1.2174,1.2177,1.2179,1.2178,1.2119,1.2172,1.2172,1.2172,1.2172,1.2172,0,1.1521,1.1555,1.1601,1.1662,1.1701,1.1714,1.1764,1.1796,1.1846,1.1892,1.1937,1.2,1.2054,1.2102,1.2158,1.2186,1.2195,1.2199,1.2198,1.2205,1.2174,1.2161,1.219,1.219,1.219,1.219,1.219,1.219,1.1547,1.1602,1.1625,1.1699,1.1733,1.1788,1.1815,1.1853,1.189,1.1959,1.2003,1.2034,1.2081,1.214,1.219,1.2203,1.2223,1.2224,1.2239,1.221,1.2207,1.2205,1.2193,1.2228,1.2228,1.2266,1.2266,1.2266]},{"header":{"parameterUnit":"m.s-1","parameterCategory":1,"la1":30.2991,"la2":30.254,"lo1":-89.0895,"lo2":-89.0444,"dy":0.0017,"dx":0.0017,"nx":28,"ny":28,"refTime":"2023-08-18T03:00:00:Z","depth":0,"parameterNumber":3,"parameterNumberName":"V-component_of_WINDS"},"data":[0,0,0,0,0,0,0,0,0,0,0,0,0,0,0,0,0,0,0,0,0,0,0,0,0,0,0,0,0,0,0,0,0,0,0,0,0,0,0,0,0,0,0,0,0,0,0,0,0,0,0,0,0,0,0,0,0,0,4.2722,4.2722,0,4.2715,4.2715,4.2715,4.2713,4.2713,4.2713,4.2713,4.2704,4.2704,4.2703,0,0,0,0,0,0,0,0,0,0,0,0,0,4.2728,4.2728,4.2722,4.2722,4.2722,4.2715,4.2715,4.2715,4.2713,4.2713,4.2713,4.2713,4.2704,4.2704,4.2703,0,0,0,0,0,0,0,0,0,0,0,0,0,4.2723,4.2728,4.2722,4.272,4.272,4.2715,4.2715,4.2715,4.2713,4.2713,4.2713,4.2713,4.2704,4.2704,4.2703,4.2699,0,0,4.2702,4.2702,0,0,0,0,0,0,0,0,4.2724,4.2723,4.272,4.272,4.272,4.2715,4.2714,4.271,4.2713,4.2715,4.2713,4.2713,4.2707,4.2707,4.2705,4.2699,4.2699,4.2702,4.2702,4.2701,4.2701,0,0,0,0,0,0,0,4.2724,4.2723,4.2719,4.272,4.272,4.2718,4.2717,4.2713,4.2711,4.2715,4.2715,4.2715,4.2707,4.2706,4.2705,4.2698,4.2702,4.2701,4.2701,4.2701,4.2685,4.2685,0,0,0,0,0,0,4.2725,4.2724,4.2719,4.2719,4.2722,4.2718,4.2717,4.2716,4.2711,4.271,4.2714,4.2714,4.2706,4.2705,4.2705,4.2698,4.2701,4.2701,4.2701,4.2685,4.2685,4.2685,0,0,0,0,0,0,4.2725,4.2725,4.272,4.2721,4.272,4.2718,4.2717,4.2716,4.2715,4.2711,4.271,4.2714,4.2706,4.2705,4.27,4.2698,4.2701,4.27,4.2685,4.2685,4.2685,4.2686,0,0,0,0,0,0,4.2725,4.2725,4.2725,4.2721,4.272,4.2717,4.2717,4.2716,4.2714,4.2714,4.271,4.2709,4.2706,4.2701,4.27,4.2697,4.27,4.2686,4.2685,4.2685,4.2686,4.2685,4.2685,0,0,0,0,0,4.2726,4.2725,4.2725,4.2724,4.272,4.2717,4.2716,4.2714,4.2714,4.2713,4.271,4.2709,4.2698,4.27,4.2699,4.2696,4.2686,4.2685,4.2685,4.2686,4.2686,4.2685,0,0,0,0,0,0,4.2728,4.2725,4.2724,4.2723,4.272,4.2716,4.2715,4.2714,4.271,4.271,4.2707,4.2706,4.27,4.2698,4.27,4.2691,4.2692,4.2691,4.2693,4.2692,4.2692,4.2692,4.27,0,0,0,0,0,4.2729,4.2727,4.2724,4.2723,4.2721,4.2718,4.2717,4.2715,4.2712,4.271,4.2707,4.2703,4.2698,4.2695,4.2691,4.2685,4.2683,4.2682,4.2682,4.2682,4.2681,4.2675,4.2674,4.2684,4.2684,4.2684,0,0,4.2729,4.2727,4.2727,4.2723,4.2721,4.2717,4.2717,4.2715,4.2712,4.271,4.2705,4.2701,4.2696,4.269,4.2687,4.2688,4.2678,4.2681,4.2681,4.2681,4.2675,4.2674,4.2673,4.2683,4.2683,4.2684,0,0,4.2729,4.2728,4.2726,4.2723,4.272,4.2717,4.2717,4.2713,4.2711,4.2705,4.2703,4.2698,4.2691,4.2687,4.2684,4.2678,4.2676,4.2677,4.2675,4.2669,4.2669,4.2668,4.2664,4.2663,4.2676,4.2676,4.2676,0,4.273,4.2727,4.2725,4.2722,4.2719,4.2717,4.2714,4.2711,4.2706,4.2703,4.2704,4.2693,4.2689,4.2681,4.2679,4.2678,4.2675,4.2678,4.2669,4.2668,4.2668,4.2664,4.2663,4.2676,4.2676,4.2676,4.2676,0,4.2728,4.2725,4.2723,4.2718,4.2716,4.2712,4.2708,4.2705,4.2703,4.27,4.2693,4.2688,4.2682,4.268,4.2678,4.267,4.267,4.267,4.2671,4.2667,4.2663,4.2662,4.2676,4.2676,4.2676,4.2676,0,0,4.273,4.2723,4.2722,4.2719,4.2713,4.271,4.2706,4.27,4.2696,4.2692,4.2686,4.2679,4.2678,4.2674,4.2671,4.2666,4.266,4.2666,4.2666,4.2664,4.2648,4.2648,4.2647,4.2658,4.2658,4.2658,4.2648,0,4.2728,4.2722,4.2718,4.2712,4.2708,4.2705,4.27,4.2695,4.2691,4.2686,4.2681,4.2675,4.2675,4.2672,4.2667,4.2662,4.2656,4.2662,4.2651,4.2651,4.2652,4.2645,4.2646,4.2637,4.2647,4.2647,4.2647,0,4.2726,4.2721,4.2715,4.2707,4.2705,4.2702,4.2695,4.269,4.2683,4.268,4.2675,4.2672,4.2664,4.2665,4.2653,4.2658,4.2652,4.2649,4.2648,4.2647,4.2648,4.2642,4.2634,4.2632,4.2645,4.2645,4.2645,0,4.2727,4.2719,4.2713,4.2711,4.2702,4.2699,4.2695,4.2689,4.2684,4.2677,4.2674,4.2666,4.2661,4.2654,4.2648,4.265,4.2636,4.2637,4.2631,4.2631,4.2629,4.2629,4.2619,4.2627,4.2627,4.2627,4.2627,0,4.2725,4.272,4.2713,4.271,4.2704,4.2699,4.2693,4.2688,4.2682,4.2675,4.2672,4.2666,4.2658,4.265,4.2645,4.2635,4.2633,4.2629,4.2628,4.2629,4.2629,4.2626,4.2626,4.2627,4.2627,4.2627,4.2627,0,4.2725,4.272,4.2714,4.2706,4.2703,4.2699,4.2691,4.2687,4.2682,4.2674,4.2671,4.2663,4.2654,4.2647,4.2634,4.2631,4.2619,4.2618,4.2622,4.2621,4.2615,4.2615,4.2602,4.2599,4.261,4.2609,4.2609,0,4.2724,4.272,4.2712,4.2708,4.2704,4.2698,4.2693,4.2687,4.2682,4.2672,4.2667,4.2658,4.265,4.2634,4.2626,4.2615,4.2613,4.2609,4.2612,4.2613,4.2612,4.2612,4.261,4.2609,4.2609,4.2609,4.2609,0,4.2722,4.2719,4.2713,4.2705,4.27,4.2694,4.2687,4.2683,4.2676,4.267,4.266,4.2654,4.264,4.263,4.2618,4.2612,4.2608,4.2608,4.2606,4.2607,4.2609,4.2606,4.262,4.2608,4.2608,4.2608,4.2608,4.2608,4.2721,4.2716,4.2709,4.2701,4.2696,4.2689,4.2683,4.2677,4.2669,4.2659,4.2655,4.2644,4.2634,4.2618,4.2612,4.2602,4.2602,4.2599,4.2598,4.2598,4.2597,4.261,4.26,4.26,4.26,4.26,4.26,0,4.2717,4.2712,4.2705,4.2695,4.2689,4.2686,4.2678,4.2672,4.2663,4.2655,4.2646,4.2634,4.2623,4.2613,4.2601,4.2594,4.2592,4.2591,4.2591,4.2589,4.2598,4.2601,4.2593,4.2593,4.2593,4.2593,4.2593,4.2593,4.2715,4.2707,4.2702,4.269,4.2684,4.2675,4.267,4.2662,4.2655,4.2642,4.2633,4.2626,4.2616,4.2603,4.2592,4.2589,4.2584,4.2583,4.258,4.2588,4.2589,4.259,4.2592,4.2582,4.2582,4.2571,4.2571,4.2571]}]]